W7KKE-3 Weather Reports


Display with metric or nautical units.
time (UTC)temp
F
wind
direction
speed
MPH
gust
MPH
rain 1hr
in
rain 24hr
in
rain mn
in
humidity
%
barometer
mb
20150728132019 54 70 1.0 5.0 0.00 0.00 0.00 93 1025.0
20150728131518 54 0 0.0 0.0 0.00 0.00 0.00 93 1025.1
20150728131019 54 0 0.0 0.0 0.00 0.00 0.00 93 1025.1
20150728130519 54 0 0.0 0.0 0.00 0.00 0.00 93 1025.2
20150728130019 54 0 0.0 0.0 0.00 0.00 0.00 93 1025.2
20150728125518 54 0 0.0 0.0 0.00 0.00 0.00 93 1025.1
20150728125018 54 0 0.0 0.0 0.00 0.00 0.00 93 1025.1
20150728124518 54 0 0.0 0.0 0.00 0.00 0.00 92 1025.0
20150728124019 54 0 0.0 0.0 0.00 0.00 0.00 92 1025.0
20150728123518 54 0 0.0 0.0 0.00 0.00 0.00 92 1024.9
20150728123018 54 0 0.0 5.0 0.00 0.00 0.00 92 1024.9
20150728122518 55 79 0.0 5.0 0.00 0.00 0.00 92 1024.8
20150728122018 55 72 2.0 5.0 0.00 0.00 0.00 92 1024.6
20150728121518 55 0 0.0 0.0 0.00 0.00 0.00 92 1024.7
20150728121018 55 0 0.0 0.0 0.00 0.00 0.00 92 1024.6
20150728120518 55 0 0.0 0.0 0.00 0.00 0.00 91 1024.7
20150728120019 55 0 0.0 0.0 0.00 0.00 0.00 91 1024.6
20150728115518 55 0 0.0 0.0 0.00 0.00 0.00 91 1024.7
20150728115018 55 0 0.0 0.0 0.00 0.00 0.00 91 1024.7
20150728114518 56 0 0.0 0.0 0.00 0.00 0.00 91 1024.7
20150728114018 56 0 0.0 0.0 0.00 0.00 0.00 91 1024.7
20150728113518 56 0 0.0 0.0 0.00 0.00 0.00 91 1024.7
20150728113019 56 0 0.0 6.0 0.00 0.00 0.00 91 1024.6
20150728112519 56 0 0.0 6.0 0.00 0.00 0.00 90 1024.7
20150728112019 56 100 0.0 6.0 0.00 0.00 0.00 90 1024.7
20150728111518 56 78 1.0 4.0 0.00 0.00 0.00 90 1024.6
20150728111018 56 0 0.0 0.0 0.00 0.00 0.00 90 1024.6
20150728110519 56 68 2.0 7.0 0.00 0.00 0.00 90 1024.6
20150728110019 56 0 0.0 7.0 0.00 0.00 0.00 90 1024.5
20150728105518 56 103 1.0 7.0 0.00 0.00 0.00 90 1024.5
20150728105019 56 0 0.0 0.0 0.00 0.00 0.00 90 1024.4
20150728104518 56 0 0.0 0.0 0.00 0.00 0.00 89 1024.5
20150728104018 56 0 0.0 0.0 0.00 0.00 0.00 89 1024.4
20150728103518 56 0 0.0 0.0 0.00 0.00 0.00 89 1024.5
20150728103019 57 0 0.0 0.0 0.00 0.00 0.00 89 1024.6
20150728102518 57 0 0.0 0.0 0.00 0.00 0.00 89 1024.7
20150728102019 57 0 0.0 4.0 0.00 0.00 0.00 89 1024.8
20150728101518 57 0 0.0 4.0 0.00 0.00 0.00 89 1024.8
20150728101018 57 63 0.0 4.0 0.00 0.00 0.00 89 1024.8
20150728100518 57 0 0.0 0.0 0.00 0.00 0.00 88 1024.8
20150728100019 57 0 0.0 0.0 0.00 0.00 0.00 88 1024.7
20150728095518 57 0 0.0 0.0 0.00 0.00 0.00 88 1024.7
20150728095018 57 0 0.0 0.0 0.00 0.00 0.00 88 1024.8
20150728094518 57 0 0.0 0.0 0.00 0.00 0.00 88 1024.7
20150728094018 58 0 0.0 0.0 0.00 0.00 0.00 88 1024.8
20150728093518 58 0 0.0 0.0 0.00 0.00 0.00 87 1024.7
20150728093019 58 0 0.0 0.0 0.00 0.00 0.00 87 1024.7
20150728092518 58 0 0.0 0.0 0.00 0.00 0.00 87 1024.6
20150728092018 58 0 0.0 0.0 0.00 0.00 0.00 87 1024.6
20150728091518 59 0 0.0 0.0 0.00 0.00 0.00 86 1024.7
20150728091018 59 0 0.0 0.0 0.00 0.00 0.00 86 1024.8
20150728090518 59 42 0.0 6.0 0.00 0.00 0.00 86 1024.8
20150728090019 59 0 0.0 6.0 0.00 0.00 0.00 86 1024.8
20150728085519 59 95 0.0 6.0 0.00 0.00 0.00 86 1024.8
20150728085018 59 0 0.0 0.0 0.00 0.00 0.00 86 1024.8
20150728084518 59 0 0.0 0.0 0.00 0.00 0.00 86 1024.9
20150728084018 59 0 0.0 0.0 0.00 0.00 0.00 86 1024.9
20150728083518 59 0 0.0 0.0 0.00 0.00 0.00 86 1025.0
20150728083019 59 0 0.0 0.0 0.00 0.00 0.00 85 1025.0
20150728082518 59 0 0.0 0.0 0.00 0.00 0.00 85 1025.1
20150728082018 59 0 0.0 0.0 0.00 0.00 0.00 85 1025.1
20150728081518 59 0 0.0 0.0 0.00 0.00 0.00 85 1025.1
20150728081018 59 327 0.0 9.0 0.00 0.00 0.00 85 1025.1
20150728080518 60 0 0.0 9.0 0.00 0.00 0.00 85 1025.0
20150728080019 59 327 0.0 9.0 0.00 0.00 0.00 85 1025.1
20150728075518 60 0 0.0 0.0 0.00 0.00 0.00 84 1025.0
20150728074018 60 0 0.0 5.0 0.00 0.00 0.00 83 1025.0
20150728073518 60 305 0.0 5.0 0.00 0.00 0.00 83 1024.9
20150728073020 60 331 0.0 5.0 0.00 0.00 0.00 83 1024.9
20150728072518 61 350 1.0 5.0 0.00 0.00 0.00 83 1025.0
20150728072018 61 61 0.0 3.0 0.00 0.00 0.00 83 1025.0
20150728071518 61 0 0.0 3.0 0.00 0.00 0.00 82 1025.0
20150728071018 61 0 0.0 3.0 0.00 0.00 0.00 82 1024.9
20150728070518 61 68 1.0 3.0 0.00 0.00 0.00 82 1024.9
20150728070020 61 0 0.0 0.0 0.00 0.00 0.00 81 1025.0
20150728065518 61 0 0.0 0.0 0.00 0.00 0.00 81 1024.9
20150728064018 62 0 0.0 0.0 0.00 0.00 0.00 80 1024.9
20150728063518 62 0 0.0 10.0 0.00 0.00 0.00 80 1024.9
20150728063018 62 337 0.0 10.0 0.00 0.00 0.00 80 1024.9
20150728062518 62 98 0.0 10.0 0.00 0.00 0.00 80 1025.0
20150728062018 62 210 0.0 9.0 0.00 0.00 0.00 80 1025.0
20150728060518 62 355 0.0 4.0 0.00 0.00 0.00 80 1025.0
20150728060018 62 345 1.0 10.0 0.00 0.00 0.00 80 1025.1
20150728055518 63 333 2.0 10.0 0.00 0.00 0.00 80 1025.0
20150728055018 63 309 0.0 10.0 0.00 0.00 0.00 80 1025.0
20150728054519 63 334 5.0 15.0 0.00 0.00 0.00 80 1025.1
20150728054018 63 340 1.0 15.0 0.00 0.00 0.00 79 1025.1
20150728053518 63 288 0.0 15.0 0.00 0.00 0.00 79 1025.1
20150728053019 63 338 8.0 15.0 0.00 0.00 0.00 79 1025.1
20150728052518 63 322 0.0 17.0 0.00 0.00 0.00 79 1025.0
20150728052018 63 327 2.0 17.0 0.00 0.00 0.00 79 1025.0
20150728051519 63 322 4.0 17.0 0.00 0.00 0.00 78 1025.0
20150728051018 63 347 0.0 11.0 0.00 0.00 0.00 78 1025.0
20150728050518 63 333 0.0 20.0 0.00 0.00 0.00 78 1025.0
20150728050019 63 337 2.0 20.0 0.00 0.00 0.00 78 1025.0
20150728045519 63 334 11.0 20.0 0.00 0.00 0.00 78 1024.9
20150728045018 63 333 8.0 14.0 0.00 0.00 0.00 78 1025.0
20150728043018 64 330 6.0 16.0 0.00 0.00 0.00 78 1024.8
20150728042518 64 326 9.0 16.0 0.00 0.00 0.00 78 1024.9
20150728042018 64 340 7.0 15.0 0.00 0.00 0.00 78 1024.8
20150728041518 64 333 9.0 14.0 0.00 0.00 0.00 78 1024.8
20150728041018 64 341 7.0 11.0 0.00 0.00 0.00 79 1024.8
20150728040518 64 324 5.0 11.0 0.00 0.00 0.00 79 1024.7
20150728040019 65 326 8.0 13.0 0.00 0.00 0.00 78 1024.7
20150728035521 65 331 7.0 13.0 0.00 0.00 0.00 78 1024.7
20150728035018 65 337 9.0 13.0 0.00 0.00 0.00 78 1024.6
20150728034518 65 337 8.0 13.0 0.00 0.00 0.00 78 1024.6
20150728034018 66 336 8.0 11.0 0.00 0.00 0.00 77 1024.7
20150728033518 66 310 6.0 10.0 0.00 0.00 0.00 76 1024.7
20150728033018 66 334 7.0 10.0 0.00 0.00 0.00 76 1024.7
20150728032518 66 312 5.0 7.0 0.00 0.00 0.00 76 1024.6
20150728032018 66 351 3.0 8.0 0.00 0.00 0.00 75 1024.6
20150728031518 67 0 0.0 8.0 0.00 0.00 0.00 75 1024.8
20150728031018 67 116 1.0 8.0 0.00 0.00 0.00 74 1024.7
20150728025019 67 323 6.0 12.0 0.00 0.00 0.00 74 1024.8
20150728024518 68 263 1.0 9.0 0.00 0.00 0.00 74 1024.8
20150728024018 68 295 3.0 9.0 0.00 0.00 0.00 74 1024.9
20150728023518 68 326 5.0 15.0 0.00 0.00 0.00 74 1024.8
20150728023018 68 288 1.0 15.0 0.00 0.00 0.00 74 1024.9
20150728022518 68 347 2.0 15.0 0.00 0.00 0.00 75 1024.8
20150728022018 67 337 5.0 15.0 0.00 0.00 0.00 75 1024.8
20150728021518 67 334 4.0 20.0 0.00 0.00 0.00 74 1024.8
20150728021018 68 333 8.0 20.0 0.00 0.00 0.00 74 1024.9
20150728020518 68 294 7.0 20.0 0.00 0.00 0.00 74 1024.9
20150728020018 68 288 11.0 19.0 0.00 0.00 0.00 74 1024.8
20150728015518 68 303 10.0 19.0 0.00 0.00 0.00 74 1024.8
20150728015018 68 330 10.0 19.0 0.00 0.00 0.00 74 1024.9
20150728014518 68 323 9.0 17.0 0.00 0.00 0.00 74 1024.9
20150728014018 68 292 10.0 17.0 0.00 0.00 0.00 74 1024.9
20150728013518 68 312 13.0 17.0 0.00 0.00 0.00 74 1025.0
20150728013018 68 329 12.0 22.0 0.00 0.00 0.00 74 1025.0
20150728012518 68 343 13.0 22.0 0.00 0.00 0.00 74 1025.1
20150728011018 68 306 16.0 22.0 0.00 0.00 0.00 72 1025.0
20150728010518 68 337 14.0 22.0 0.00 0.00 0.00 72 1025.0
20150728010018 68 333 14.0 22.0 0.00 0.00 0.00 72 1024.9
20150728005518 68 312 12.0 21.0 0.00 0.00 0.00 71 1025.0
20150728005018 68 327 14.0 25.0 0.00 0.00 0.00 71 1024.9
20150728004518 69 333 14.0 25.0 0.00 0.00 0.00 70 1025.0
20150728004018 69 319 15.0 25.0 0.00 0.00 0.00 70 1025.0
20150728003518 69 322 14.0 20.0 0.00 0.00 0.00 69 1025.0
20150728003018 69 299 12.0 21.0 0.00 0.00 0.00 70 1025.0
20150728002518 69 317 13.0 21.0 0.00 0.00 0.00 70 1025.0
20150728002019 69 306 13.0 21.0 0.00 0.00 0.00 71 1025.0
20150728001519 69 310 11.0 21.0 0.00 0.00 0.00 71 1025.0
20150728001018 69 317 13.0 22.0 0.00 0.00 0.00 72 1025.0
20150728000518 69 336 13.0 22.0 0.00 0.00 0.00 72 1025.1
20150728000018 69 334 13.0 22.0 0.00 0.00 0.00 71 1025.0
20150727235518 70 326 13.0 21.0 0.00 0.00 0.00 72 1025.0
20150727235018 70 295 12.0 21.0 0.00 0.00 0.00 72 1025.0
20150727233018 70 320 12.0 21.0 0.00 0.00 0.00 69 1025.0
20150727232518 70 348 13.0 21.0 0.00 0.00 0.00 68 1024.9
20150727232018 71 336 7.0 17.0 0.00 0.00 0.00 69 1025.0
20150727231518 71 327 7.0 17.0 0.00 0.00 0.00 70 1025.0
20150727231018 71 322 10.0 18.0 0.00 0.00 0.00 70 1024.9
20150727230518 70 319 10.0 18.0 0.00 0.00 0.00 70 1025.0
20150727230018 70 308 11.0 18.0 0.00 0.00 0.00 70 1024.9
20150727225518 70 312 9.0 20.0 0.00 0.00 0.00 70 1024.8
20150727225018 70 320 9.0 20.0 0.00 0.00 0.00 70 1024.9
20150727224518 70 326 11.0 20.0 0.00 0.00 0.00 71 1025.0
20150727224018 70 338 15.0 20.0 0.00 0.00 0.00 71 1025.0
20150727223518 70 322 12.0 21.0 0.00 0.00 0.00 71 1025.0
20150727223018 70 319 14.0 21.0 0.00 0.00 0.00 71 1025.1
20150727222518 70 338 12.0 21.0 0.00 0.00 0.00 71 1025.1
20150727222018 70 306 11.0 21.0 0.00 0.00 0.00 71 1025.1
20150727221518 71 334 14.0 21.0 0.00 0.00 0.00 71 1025.2
20150727221018 71 306 12.0 16.0 0.00 0.00 0.00 71 1025.3
20150727215018 71 310 10.0 17.0 0.00 0.00 0.00 71 1025.2
20150727214518 71 338 11.0 17.0 0.00 0.00 0.00 70 1025.2
20150727214018 71 306 11.0 17.0 0.00 0.00 0.00 70 1025.1
20150727213518 71 324 11.0 20.0 0.00 0.00 0.00 70 1025.0
20150727213018 71 324 10.0 20.0 0.00 0.00 0.00 70 1025.0
20150727212518 71 315 12.0 20.0 0.00 0.00 0.00 71 1025.0
20150727212019 71 309 11.0 17.0 0.00 0.00 0.00 71 1025.0
20150727211518 71 323 11.0 17.0 0.00 0.00 0.00 71 1025.0
20150727211018 71 302 13.0 18.0 0.00 0.00 0.00 71 1025.0
20150727210518 71 316 12.0 18.0 0.00 0.00 0.00 71 1025.0
20150727210018 71 331 12.0 18.0 0.00 0.00 0.00 71 1025.0
20150727205518 71 330 12.0 18.0 0.00 0.00 0.00 71 1024.9
20150727205018 71 312 9.0 17.0 0.00 0.00 0.00 71 1025.0
20150727204518 72 313 12.0 16.0 0.00 0.00 0.00 70 1024.9
20150727204018 72 345 11.0 16.0 0.00 0.00 0.00 71 1025.0
20150727203518 71 308 10.0 17.0 0.00 0.00 0.00 71 1024.9
20150727203018 72 303 9.0 17.0 0.00 0.00 0.00 71 1024.9
20150727202518 72 319 11.0 17.0 0.00 0.00 0.00 71 1025.0
20150727202018 72 331 11.0 16.0 0.00 0.00 0.00 71 1024.9
20150727200518 72 331 8.0 18.0 0.00 0.00 0.00 71 1024.8
20150727200018 72 309 11.0 16.0 0.00 0.00 0.00 71 1024.9
20150727195518 72 333 12.0 15.0 0.00 0.00 0.00 71 1024.8
20150727195018 72 312 10.0 14.0 0.00 0.00 0.00 71 1024.9
20150727194518 72 333 9.0 14.0 0.00 0.00 0.00 72 1024.9
20150727194018 72 330 9.0 15.0 0.00 0.00 0.00 71 1024.9
20150727193518 72 294 8.0 15.0 0.00 0.00 0.00 71 1024.9
20150727193018 73 319 11.0 15.0 0.00 0.00 0.00 71 1024.9
20150727192518 73 327 9.0 13.0 0.00 0.00 0.00 71 1024.9
20150727192018 73 310 10.0 14.0 0.00 0.00 0.00 70 1024.8
20150727191518 74 315 8.0 14.0 0.00 0.00 0.00 69 1024.8
20150727185518 74 313 6.0 10.0 0.00 0.00 0.00 70 1024.8
20150727185018 73 296 5.0 10.0 0.00 0.00 0.00 71 1024.8
20150727184518 73 317 6.0 10.0 0.00 0.00 0.00 71 1024.8
20150727181518 71 295 8.0 13.0 0.00 0.00 0.00 74 1024.8
20150727181018 71 322 8.0 13.0 0.00 0.00 0.00 74 1024.8
20150727180518 71 301 9.0 13.0 0.00 0.00 0.00 74 1024.7
20150727180017 71 308 9.0 13.0 0.00 0.00 0.00 75 1024.7
20150727175518 70 308 9.0 11.0 0.00 0.00 0.00 76 1024.6
20150727175018 70 309 9.0 11.0 0.00 0.00 0.00 77 1024.6
20150727174518 69 341 6.0 9.0 0.00 0.00 0.00 79 1024.5
20150727174017 68 306 6.0 9.0 0.00 0.00 0.00 80 1024.5
20150727173518 67 299 8.0 9.0 0.00 0.00 0.00 81 1024.4
20150727173018 67 295 5.0 8.0 0.00 0.00 0.00 82 1024.3
20150727172517 66 295 5.0 8.0 0.00 0.00 0.00 83 1024.3
20150727172018 66 326 6.0 7.0 0.00 0.00 0.00 84 1024.4
20150727171518 66 315 5.0 7.0 0.00 0.00 0.00 84 1024.3
20150727171018 66 0 0.0 0.0 0.00 0.00 0.00 84 1024.3
20150727165517 66 0 0.0 0.0 0.00 0.00 0.00 84 1024.3
20150727165017 66 0 0.0 0.0 0.00 0.00 0.00 84 1024.3
20150727164518 67 0 0.0 0.0 0.00 0.00 0.00 84 1024.3
20150727164018 67 0 0.0 0.0 0.00 0.00 0.00 83 1024.2
20150727163517 67 0 0.0 0.0 0.00 0.00 0.00 82 1024.2
20150727163017 67 0 0.0 0.0 0.00 0.00 0.00 83 1024.1
20150727162518 67 0 0.0 0.0 0.00 0.00 0.00 83 1024.1
20150727162018 66 0 0.0 0.0 0.00 0.00 0.00 83 1024.1
20150727161517 66 0 0.0 0.0 0.00 0.00 0.00 85 1024.0
20150727161017 66 0 0.0 0.0 0.00 0.00 0.00 86 1024.0
20150727160517 65 0 0.0 0.0 0.00 0.00 0.00 88 1024.1
20150727160017 65 0 0.0 0.0 0.00 0.00 0.00 90 1024.1
20150727155517 64 0 0.0 0.0 0.00 0.00 0.00 92 1024.0
20150727155017 63 0 0.0 0.0 0.00 0.00 0.00 94 1024.1
20150727154518 63 0 0.0 0.0 0.00 0.00 0.00 95 1024.1
20150727154019 62 0 0.0 0.0 0.00 0.00 0.00 96 1024.1
20150727153517 61 0 0.0 0.0 0.00 0.00 0.00 96 1024.1
20150727153017 60 0 0.0 0.0 0.00 0.00 0.00 96 1024.1
20150727152517 60 0 0.0 0.0 0.00 0.00 0.00 96 1024.1
20150727152018 59 0 0.0 0.0 0.00 0.00 0.00 96 1024.1
20150727151517 58 0 0.0 0.0 0.00 0.00 0.00 96 1024.2
20150727151017 58 0 0.0 0.0 0.00 0.00 0.00 96 1024.3
20150727150517 58 0 0.0 0.0 0.00 0.00 0.00 96 1024.1
20150727144517 57 0 0.0 0.0 0.00 0.00 0.00 96 1023.8
20150727144017 57 0 0.0 0.0 0.00 0.00 0.00 96 1023.8
20150727143517 57 0 0.0 0.0 0.00 0.00 0.00 96 1023.7
20150727143017 57 0 0.0 0.0 0.00 0.00 0.00 96 1023.7
20150727142518 56 0 0.0 0.0 0.00 0.00 0.00 96 1023.8
20150727142017 56 0 0.0 0.0 0.00 0.00 0.00 96 1023.9
20150727141517 56 0 0.0 0.0 0.00 0.00 0.00 96 1023.9
20150727141017 56 0 0.0 0.0 0.00 0.00 0.00 96 1024.0
20150727140517 56 0 0.0 0.0 0.00 0.00 0.00 96 1023.9
20150727140017 56 0 0.0 0.0 0.00 0.00 0.00 96 1023.9
20150727135517 55 0 0.0 0.0 0.00 0.00 0.00 96 1023.9
20150727135018 55 0 0.0 0.0 0.00 0.00 0.00 96 1023.9
20150727134517 55 0 0.0 0.0 0.00 0.00 0.00 96 1023.9
20150727134017 55 0 0.0 0.0 0.00 0.00 0.00 96 1023.8
20150727133517 55 0 0.0 0.0 0.00 0.00 0.00 96 1023.6
20150727133017 55 0 0.0 0.0 0.00 0.00 0.00 96 1023.7
20150727132517 55 0 0.0 0.0 0.00 0.00 0.00 96 1023.6